STARLINK-32323, 61677

Orbit data source: Space-Track

STARLINK-32323, 61677 is a payload satellite owned by SpaceX/Seattle (US) in LEO that was launched on Sat, 26 Oct 2024 UTC via an FALCON 9 launch vehicle from the Air Force Eastern Test Range (AFETR). Payload-class satellites include a variety of spacecraft equipped with specific instruments for various scientific and technological missions. These include communications satellites like Starlink; space stations such as the ISS; scientific satellites like the Hubble; Earth observation satellites from companies like Planet Labs, Umbra, and HawkEye 360; GPS; miniature CubeSats for education and research; and military/defense satellites.

Loading next visibility...
Identifier
61677, 2024-193S
Orbit
LEO
Country
Flag of USUS
Related business
Manufacturer
SpaceX/Seattle
Mission
Operational Commercial Communications
Bus & Motor
STARLINK V2M, Unknown motor
Mass
730 kg wet, ~700 kg dry
Launch date (UTC)
2024-10-26 (1 year ago)
Launch vehicle
FALCON 9
Launch site
Air Force Eastern Test Range (AFETR)
Object type
Payload
Rocket body
Debris
Shape & HBR
Box + 2 Pan, 17.7 m
Radar Cross Section
33.884 m², Large (>1 m²)

Expand to show TLE details & history
Last TLE update: 9 hours ago

TLE from 9 hours ago
0 STARLINK-32323
1 61677U 24193S   25290.67143222 -.00000337  00000-0  75243-6 0  9992
2 61677  53.1601  35.0439 0001238  99.5843 260.5298 15.30189890 54635
Epoch: 2025-10-17T16:06Z
TLE epoch observation values (Epoch: 2025-10-17T16:06:51.743Z)
Latitude
-0.00001°
Longitude
126.91484°
Altitude
476.285 km
Speed
7.629 km/s
True Right ascension
02h 20m 10s
True Declination
0° 00' 00"
Sunlit
Object was in full shadow at epoch
Visualization orbit readout
Latitude
Unknown
Longitude
Unknown
Altitude
Unknown
Speed
Unknown
Apparent Right ascension
Unknown
Apparent Declination
Unknown
Sunlit
N/A
Visualization observer readout
Local Sidereal Time
19:39:50
Azimuth
Unknown
Elevation
Unknown
Doppler factor
Unknown
Orbital elements
Apogee altitude
476.35 km
Perigee altitude
474.653 km
Semi-major axis
6,853.639 km
Eccentricity
0.00012
Inclination
53.1601°
RAAN
35.0439°
Arg. of periapsis
99.5843°
True anomaly
260.51581°
Mean anomaly
260.5298°
Eccentric anomaly
260.5228°
Mean motion
3.82526 °/min
Orbital period
94.11 mins
BSTAR
7.5243e-7
Loading maneuver chart data...
Computing Atmospheric mass density...
Loading historical data...
Loading historical data...
Loading historical data...
Loading historical data...
Loading historical data...
Loading historical data...
Loading historical data...

Documentation

Showing up to 5 results
|